Regional Weather Roundup
Issued by NWS

Home | Current Version | Previous Version | Graphics & Text | Print | Product List | Glossary Off
Versions: 1 2 3 4 5 6 7 8 9 10 11 12 13 14 15 16 17 18 19 20 21 22 23 24 25 26 27 28 29 30 31 32 33 34 35 36 37 38 39 40 41 42 43 44 45 46 47 48 49 50

000
ASUS43 KDMX 282303
RWRIA

WEATHER ROUNDUP FOR IOWA
NATIONAL WEATHER SERVICE DES MOINES IA
600 PM CDT WED SEP 28 2016

NOTE: "FAIR" INDICATES FEW OR NO CLOUDS BELOW 12,000 FEET WITH NO
SIGNIFICANT WEATHER AND/OR OBSTRUCTIONS TO VISIBILITY.

* - THESE STATIONS ARE NOT NWS STATIONS...THUS NOT UNDER NWS
QUALITY CONTROL.  THEY ALSO DO NOT REPORT WEATHER SUCH
AS PRECIPITATION OR FOG.

IAZ001>003-012>014-020>022-031>034-043>046-290000-
   NORTHWEST IOWA

CITY           SKY/WX    TMP DP  RH WIND       PRES   REMARKS
CARROLL *      CLOUDY    61  48  63 NE15      30.25R
CHEROKEE *     CLOUDY    60  49  66 N10       30.27R
DENISON *      CLOUDY    63  48  59 N9        30.23R
LE MARS *      MOSUNNY   61  46  59 NE8G15    30.29R
ORANGE CITY *  MOSUNNY   61  46  59 N6        30.29R
SHELDON *      CLOUDY    59  48  67 N6        30.28R
SIOUX CITY     SUNNY     64  46  52 N14       30.27R
SPENCER        CLOUDY    61  47  59 NE14      30.27R
STORM LAKE *   PTSUNNY   61  46  59 NE13G21   30.26R
$$

IAZ055>058-069>071-079>083-090>094-290000-
   SOUTHWEST IOWA

CITY           SKY/WX    TMP DP  RH WIND       PRES   REMARKS
ATLANTIC *     CLOUDY    64  48  55 NE13      30.22R
AUDUBON *      PTSUNNY   61  48  63 N9        30.24R
CLARINDA *       N/A     66  48  52 MISG      30.22S
COUNCIL BLFS * SUNNY     63  46  55 N12       30.24R
CRESTON *      PTSUNNY   59  46  63 N10G17    30.23R
HARLAN  *      PTSUNNY   63  46  55 N10G16    30.27R
LAMONI         CLOUDY    59  48  67 N15       30.20R
RED OAK *      CLOUDY    64  48  55 N10G18    30.22R
SHENANDOAH *   MOSUNNY   64  46  52 N9        30.22S
$$

IAZ047>049-059>061-072>074-084-290000-
   CENTRAL IOWA

CITY           SKY/WX    TMP DP  RH WIND       PRES   REMARKS
AMES           PTSUNNY   61  51  70 N14       30.20R
ANKENY *         N/A    N/A N/A N/A MISG        N/A
BOONE *        MOSUNNY   61  48  63 N14G22    30.21R
CHARITON *       N/A     59  50  72 NW10      30.19R
DES MOINES     CLOUDY    61  49  64 N12G20    30.20R
GRINNELL*      CLOUDY    60  49  66 N6        30.18R
KNOXVILLE *    CLOUDY    59  48  67 NW9G15    30.18R
MARSHALLTOWN   CLOUDY    60  51  72 N8        30.18R
NEWTON *       CLOUDY    61  48  63 N10G18    30.18R
PELLA *        MOCLDY    60  49  68 NW7       30.19R
PERRY *        CLOUDY    61  49  65 N13G20    30.23R
$$

IAZ004>006-015-016-023>025-035-036-290000-
   NORTH CENTRAL IOWA

CITY           SKY/WX    TMP DP  RH WIND       PRES   REMARKS
ALGONA *       CLOUDY    61  48  63 N13       30.25R
CLARION *      CLOUDY    61  48  63 N12G20    30.22R
ESTHERVILLE    CLOUDY    59  47  64 NE15      30.27R
FORT DODGE *   MOSUNNY   59  46  63 N8        30.25R
MASON CITY     PTCLDY    61  47  59 N13G21    30.23R
FOREST CITY *  CLOUDY    59  46  63 N12       30.24R
WEBSTER CITY * MOSUNNY   63  48  59 N13       30.20R
IOWA FALLS *   CLOUDY    62  49  61 N13G18    30.21R
$$

IAZ007>011-017>019-026>030-037>042-050>054-066-290000-
   NORTHEAST IOWA

CITY           SKY/WX    TMP DP  RH WIND       PRES   REMARKS
CEDAR RAPIDS   CLEAR     62  51  67 N12       30.14R
CHARLES CITY * PTCLDY    63  46  55 NE8G17    30.20R
CLINTON *      LGT RAIN  57  53  86 N12       30.12R
DECORAH *      CLOUDY    59  52  77 N6        30.18R
DUBUQUE        CLOUDY    57  51  80 NE8       30.14R
MONTICELLO *   MOCLDY    63  48  59 N9G20     30.13R
OELWEIN *      PTCLDY    61  50  67 N12G20    30.18R
WATERLOO       CLOUDY    61  49  64 NE12      30.17R
$$

IAZ064-065-067-068-078-290000-
   EAST CENTRAL IOWA

CITY           SKY/WX    TMP DP  RH WIND       PRES   REMARKS
DAVENPORT      LGT RAIN  56  52  86 N7        30.12R
IOWA CITY      CLEAR     64  47  53 N8        30.14R
MUSCATINE *    PTCLDY    64  46  52 N10G18    30.12R
QUAD CITIES    CLOUDY    61  49  64 N12G22    30.10R
$$

IAZ062-063-075>077-085>089-095>099-290000-
   SOUTHEAST IOWA

CITY           SKY/WX    TMP DP  RH WIND       PRES   REMARKS
BURLINGTON     CLOUDY    62  49  62 N8        30.10R
FAIRFIELD *    CLOUDY    63  46  55 N13       30.14R
FORT MADISON *   N/A     63  48  59 N6        30.12R
KEOKUK *       CLOUDY    63  48  59 NW7G15    30.11R
OSKALOOSA *    CLOUDY    61  48  62 N10       30.17R
OTTUMWA        CLOUDY    62  47  57 N12       30.16R
WASHINGTON *     N/A    N/A N/A N/A MISG        N/A
$$

ABBREVIATIONS USED IN REMARKS
   TC - TEMPERATURES IN CELSIUS
  WCI - WIND CHILL INDEX
   HX - HEAT INDEX
  VSB - VISIBILITY
$$





USA.gov is the U.S. government's official web portal to all federal, state and local government web resources and services.